Theta_e
323 320 320 321 321 322 326 328 326 320 316 318 323 324 324 323 324 325 324 322 318 319 320 314 310 311 311 310 309 308 305 302
322 323 322 320 320 323 326 328 328 324 317 322 324 325 324 324 324 325 321 318 318 318 312 311 311 312 310 309 309 308 305 303
323 322 323 322 322 323 325 327 327 327 322 321 323 323 324 325 324 320 318 318 316 312 311 311 312 311 309 308 307 306 305 304
325 324 322 323 324 325 326 328 327 327 325 322 323 324 325 325 321 319 319 316 313 312 312 312 312 309 308 308 308 308 306 303
325 325 325 325 323 323 326 327 327 325 325 323 322 324 325 324 323 321 320 315 313 312 312 312 310 308 306 309 308 306 304 301
327 325 323 324 325 324 324 326 327 326 324 323 322 325 325 324 322 320 318 315 313 312 312 312 309 308 308 309 308 304 301 298
328 326 323 321 321 324 325 325 326 326 325 322 320 325 325 324 322 320 318 315 314 313 313 312 308 309 308 309 304 301 297 295
327 328 325 322 321 322 324 325 325 326 325 323 321 322 324 324 323 321 319 316 314 313 313 311 309 306 309 308 301 297 296 294
326 327 327 324 322 321 322 324 326 324 324 324 321 324 325 323 320 317 316 315 314 313 312 311 308 310 308 301 298 297 295 294
324 326 327 326 323 322 322 323 324 323 324 324 325 325 325 323 321 318 315 315 314 313 310 308 310 309 302 299 297 296 295 294
321 323 326 326 325 323 322 322 323 324 325 325 326 326 325 322 321 320 315 314 312 309 308 310 308 300 298 297 296 295 295 294
321 321 322 323 323 324 323 323 325 326 326 327 326 325 322 322 321 320 315 313 309 309 310 309 299 298 298 297 295 295 294 294
323 322 322 323 323 323 323 324 326 323 325 325 324 323 323 322 321 318 313 309 312 310 309 301 299 298 296 295 295 294 295 294
323 324 324 324 324 324 324 326 326 322 323 322 322 324 322 320 314 313 310 311 309 304 300 299 297 296 295 295 294 293 294 294
322 324 326 326 326 325 325 327 326 324 322 322 322 319 313 310 311 308 309 305 301 298 298 295 298 298 296 293 292 292 292 292
321 324 326 327 327 326 326 325 324 323 322 320 315 310 308 311 308 304 302 301 297 295 297 299 297 293 292 291 291 290 290 290
317 321 324 326 327 327 325 324 322 321 318 314 309 308 313 307 300 302 299 296 298 299 299 297 293 291 291 291 290 290 289 289
318 320 322 324 324 324 321 320 319 317 314 309 310 310 302 299 300 298 298 299 300 298 294 292 291 291 290 290 289 289 289 289
319 320 320 320 321 321 320 317 315 312 309 310 305 299 297 298 298 299 299 299 296 294 293 291 291 290 290 289 289 289 289 288
Wind_Speed
28 30 30 32 31 24 17 14 13 13 16 20 20 19 19 17 16 13 12 12 10 10 10 9 8 5 2 2 5 8 8 9
27 32 29 31 29 22 20 19 19 19 22 22 21 21 20 19 16 12 15 13 10 12 11 11 9 5 4 3 7 10 11 12
26 29 31 32 32 27 24 22 23 22 22 21 20 19 19 17 13 17 16 12 11 13 13 13 11 8 6 4 8 9 11 12
34 34 33 31 30 28 26 23 23 24 24 22 22 21 22 19 20 18 15 14 15 16 16 15 12 8 6 5 10 14 14 13
33 37 39 37 34 31 29 26 24 24 24 24 25 25 26 24 19 17 16 18 19 19 18 15 11 9 6 10 14 15 15 12
34 36 37 36 35 33 30 29 26 25 23 25 26 27 26 18 19 19 20 22 22 21 19 17 11 9 9 13 16 14 14 15
36 35 34 33 30 30 31 30 28 26 26 26 27 28 26 20 21 22 24 24 23 23 21 18 15 11 10 13 14 13 15 16
39 39 39 38 35 33 31 30 29 29 28 28 32 31 26 20 20 22 25 24 24 25 23 20 17 12 14 20 13 16 18 16
40 41 39 38 36 34 30 33 31 27 34 32 31 30 26 22 19 20 20 21 25 26 24 22 11 26 17 12 15 17 17 15
36 39 39 39 37 35 31 27 30 31 29 31 30 28 28 25 22 22 24 25 26 25 22 14 20 16 10 12 16 16 15 16
23 32 37 38 36 34 28 29 30 29 28 27 28 28 24 24 25 27 27 26 24 19 11 14 15 8 9 15 16 16 17 16
15 20 27 33 33 30 32 29 24 25 24 23 23 23 24 29 28 26 26 25 20 10 20 23 7 10 15 18 17 18 18 17
11 14 19 23 26 27 31 27 19 19 20 22 24 28 29 28 24 25 21 17 19 15 17 10 11 15 18 19 19 19 20 20
13 15 18 19 21 25 27 25 22 21 22 23 24 27 25 23 23 18 17 16 13 12 10 8 12 19 20 20 20 21 22 22
14 17 19 20 21 24 26 25 21 23 23 25 28 23 21 19 15 14 16 12 8 7 8 11 19 22 21 19 21 21 21 22
18 20 21 22 23 23 26 23 23 24 24 23 21 22 18 12 16 15 9 2 5 9 10 21 19 18 19 19 20 21 22 23
13 16 18 20 21 25 24 23 20 18 17 19 22 18 15 12 14 8 0 5 4 13 22 19 20 20 20 20 21 23 24 25
4 8 12 15 16 17 16 13 11 12 17 20 18 13 13 11 3 4 5 11 23 16 16 19 20 20 20 21 22 25 28 29
9 7 8 11 11 12 12 13 13 17 19 16 13 15 11 8 5 8 14 20 14 16 19 20 20 21 22 23 25 27 29 30
Wind_Direction
177 175 174 177 179 186 197 206 205 200 198 193 194 197 205 207 204 196 205 204 202 209 200 197 189 204 244 314 341 349 340 331
191 193 199 200 198 205 212 212 213 205 199 199 203 210 213 214 209 197 199 200 209 204 200 198 207 221 250 288 339 345 343 339
203 204 203 205 210 219 224 227 222 212 211 211 216 221 221 221 201 198 201 207 205 206 205 210 222 237 247 301 336 345 341 336
212 212 216 220 222 224 224 223 218 218 218 220 225 224 220 209 202 204 210 210 208 209 213 222 233 245 255 306 339 336 327 326
220 222 221 224 226 228 229 229 226 222 221 227 229 230 227 215 215 216 220 213 212 215 217 228 241 247 271 321 327 324 320 315
228 224 225 227 227 228 230 231 231 231 232 232 232 233 234 226 217 221 222 215 215 215 224 235 243 255 278 315 321 313 312 310
228 231 231 230 229 228 227 229 234 238 238 237 240 238 239 222 218 225 222 217 219 222 231 232 232 248 291 314 298 301 307 306
228 226 226 229 232 232 229 232 238 243 242 243 238 241 239 230 231 230 222 223 226 230 231 230 236 236 296 305 292 300 302 305
230 228 226 226 227 230 233 234 236 246 245 242 242 241 239 224 222 227 227 233 232 231 230 231 236 314 289 285 278 292 299 303
230 230 230 231 228 230 228 235 239 251 247 242 241 242 235 215 220 224 229 230 229 228 225 224 301 292 270 272 283 290 297 304
230 230 229 234 233 231 231 238 241 248 252 249 244 238 229 221 228 226 226 227 224 216 223 277 281 263 274 279 283 291 299 300
239 234 231 230 231 226 223 231 238 243 245 241 233 229 222 226 233 225 224 222 208 249 270 289 248 275 281 280 285 293 293 293
247 243 238 235 232 222 219 225 232 224 226 220 220 220 225 232 227 218 218 203 285 252 268 259 272 278 279 282 289 291 286 285
230 233 237 239 235 225 222 227 225 220 220 222 229 231 231 225 212 195 222 244 264 242 238 286 276 292 283 287 286 284 283 282
235 224 225 230 232 226 225 236 224 228 228 226 228 219 201 191 219 205 227 227 245 240 261 269 295 289 284 282 283 284 283 282
241 229 223 224 223 219 220 231 229 234 226 218 207 193 178 245 214 216 217 252 231 261 291 295 294 286 285 289 290 290 290 289
254 238 229 223 216 216 220 220 220 215 219 200 187 179 227 195 190 234 242 221 267 281 296 293 287 292 293 292 295 296 295 292
224 223 216 212 211 209 206 206 201 189 190 185 192 197 178 180 222 163 202 289 299 300 291 288 293 293 294 298 300 297 295 293
117 134 172 189 193 190 189 185 180 176 176 183 167 160 165 165 184 267 294 300 299 293 293 294 295 298 301 304 304 301 300 297